Regional Weather Roundup
Issued by NWS

Home | Current Version | Previous Version | Text Only | Print | Product List | Glossary Off
Versions: 1 2 3 4 5 6 7 8 9 10 11 12 13 14 15 16 17 18 19 20 21 22 23 24 25 26 27 28

000
ASUS45 KSLC 270310
RWRUT

UTAH REGIONAL WEATHER ROUNDUP
NATIONAL WEATHER SERVICE SALT LAKE CITY UT
900 PM MDT SUN MAR 26 2017

UTZ001>011-023>025-270400-

NORTHERN UTAH

CITY           SKY/WX    TMP DP  RH WIND       PRES   REMARKS
BRIGHAM CITY     N/A     50  30  45 SE3       29.95F
HILL AFB       CLOUDY    47  28  48 SE9       29.95F
LOGAN          CLOUDY    49  32  52 SE3       29.95F
OGDEN          CLOUDY    48  30  49 SE6       29.95F
SALT LAKE CITY CLOUDY    51  32  48 SE7       29.95F
WENDOVER       CLOUDY    52  35  52 S8        29.91S
HEBER CITY     CLOUDY    45  27  49 SW7       29.98S

$$

UTZ011>015-024>027-270400-

CENTRAL/NORTHEAST UTAH

CITY           SKY/WX    TMP DP  RH WIND       PRES   REMARKS
PROVO AIRPORT  CLOUDY    49  30  48 CALM      29.99F
MOAB/CANYONLAN MOCLDY    52  24  33 NW5       29.93R
DELTA          CLOUDY    46  36  66 E3        29.98R
PRICE          PTCLDY    43  28  55 NE7       29.96R
RICHFIELD      MOCLDY    46  34  61 NW1       30.02S
ROOSEVELT      CLEAR     45  36  70 W5        29.98R
VERNAL         CLOUDY    45  32  60 SW3       29.95R

$$

UTZ013>016-019>022-027-270400-

SOUTHERN UTAH

CITY           SKY/WX    TMP DP  RH WIND       PRES   REMARKS
BRYCE CANYON   MOCLDY    40  25  55 W7        30.04S
CEDAR CITY     CLOUDY    48  32  53 SW9       29.99S
MILFORD        CLOUDY    49  36  61 S7        29.96F
ST GEORGE      CLOUDY    62  32  32 SW5       29.95R
HANKSVILLE     CLEAR     46  25  42 E6        29.96R
KANAB          PTCLDY    48  30  49 SW3       30.04R
BLANDING       CLOUDY    48  24  38 SW6       30.06R

$$

REGIONAL REPORTS     COLORADO/ARIZONA

CITY           SKY/WX    TMP DP  RH WIND       PRES   REMARKS
CRAIG, CO      CLOUDY    37  24  59 CALM      29.97S
GRAND JUNCTION CLOUDY    51  26  37 NW7       29.93S
RIFLE, CO      CLOUDY    47  27  45 SE5       29.95R
MONTROSE, CO   CLOUDY    47  35  63 SE8       29.99S
CORTEZ, CO     CLOUDY    47  32  56 CALM      30.00S
COLORADO CITY  MOCLDY    54  32  43 NW5       30.03R
PAGE, AZ       CLOUDY    60  35  39 W6        29.96R
GRAND CANYON   PTCLDY    37  31  78 CALM      30.07R
KINGMAN, AZ    PTCLDY    56  20  24 S9        29.97S
FLAGSTAFF, AZ  CLEAR     44  24  45 SW7       30.07R

$$

REGIONAL REPORTS    NEVADA/IDAHO/WYOMING

CITY           SKY/WX    TMP DP  RH WIND       PRES   REMARKS
LAS VEGAS, NV  MOCLDY    71  24  17 SW8       29.86S
ELY, NY        CLOUDY    45  33  63 S7        29.96F
ELKO, NV       CLEAR     44  32  62 W3        29.92S
POCATELLO, ID  CLOUDY    41  39  93 S6        29.95F
BURLEY, ID     CLOUDY    43  36  76 NE6       29.92F
FORT BRIDGER,    N/A     37  27  68 W9        30.02S WCI  30
EVANSTON, WY   CLOUDY    37  23  56 W6        30.00S WCI  32
ROCK SPRINGS,  CLOUDY    40  24  53 W10       29.98R WCI  33
KEMMERER, WY     N/A     32  27  80 W8        30.00S WCI  25

$$




USA.gov is the U.S. government's official web portal to all federal, state and local government web resources and services.